Back to catalog

PSLV-C51 PS4

AliveSSO
NORAD 47700·ROCKET BODY·🇮🇳 India
This satellite name has not been confirmed by official sources yet.

Launched Feb 28, 2021 from Satish Dhawan Space Centre

Loading…

Next Passes (next 24 hours)

TLE

FreshSource: Space-Track

Epoch: Sep 14, 2026, 16:19 UTC

1 47700U 21015B   26257.68031188  .00009770  00000-0  20387-3 0  9990
2 47700  97.1135 290.7615 0019581 306.4064  53.5380 15.45530717308231

Track PSLV-C51 PS4 in real time with AllMySat

Download on the App Store